Time,TemperatureF,DewpointF,PressureIn,WindDirection,WindDirectionDegrees,WindSpeedMPH,WindSpeedGustMPH,Humidity,HourlyPrecipIn,Conditions,Clouds,dailyrainin,SoftwareType,DateUTC
2013-03-10 00:03:00,66.7,63.4,30.09,South,183,0.0,0.0,89,0.00,,,0.00,Wunderground v.1.15,2013-03-09 13:03:00,
2013-03-10 00:09:00,66.5,63.2,30.08,South,184,1.0,1.0,89,0.00,,,0.00,Wunderground v.1.15,2013-03-09 13:09:00,
2013-03-10 00:14:00,66.4,63.1,30.08,SSE,163,0.0,0.0,89,0.00,,,0.00,Wunderground v.1.15,2013-03-09 13:14:00,
2013-03-10 00:20:00,66.5,63.2,30.09,SSE,157,0.0,1.0,89,0.00,,,-99.99,WeatherLink 5.9.3,2013-03-09 13:20:00,
2013-03-10 00:26:00,66.2,62.9,30.08,SSE,162,0.0,0.0,89,0.00,,,0.00,Wunderground v.1.15,2013-03-09 13:26:00,
2013-03-10 00:31:00,66.0,62.7,30.08,SSE,163,0.0,0.0,89,0.00,,,0.00,Wunderground v.1.15,2013-03-09 13:31:00,
2013-03-10 00:36:00,65.8,62.8,30.08,WNW,296,0.0,0.0,90,0.00,,,0.00,Wunderground v.1.15,2013-03-09 13:36:00,
2013-03-10 00:42:00,65.6,62.6,30.08,WNW,283,1.0,1.0,90,0.00,,,0.00,Wunderground v.1.15,2013-03-09 13:42:00,
2013-03-10 00:47:00,65.6,62.6,30.08,WNW,290,0.0,1.0,90,0.00,,,0.00,Wunderground v.1.15,2013-03-09 13:47:00,
2013-03-10 00:53:00,65.4,62.4,30.09,WNW,290,0.0,0.0,90,0.00,,,0.00,Wunderground v.1.15,2013-03-09 13:53:00,
2013-03-10 00:58:00,65.2,62.2,30.09,SSE,161,0.0,0.0,90,0.00,,,0.00,Wunderground v.1.15,2013-03-09 13:58:00,
2013-03-10 01:03:00,65.1,62.4,30.09,SSE,161,0.0,0.0,91,0.00,,,0.00,Wunderground v.1.15,2013-03-09 14:03:00,
2013-03-10 01:09:00,65.0,62.3,30.08,SSE,162,0.0,0.0,91,0.00,,,0.00,Wunderground v.1.15,2013-03-09 14:09:00,
2013-03-10 01:14:00,64.7,62.0,30.08,SSE,162,0.0,0.0,91,0.00,,,0.00,Wunderground v.1.15,2013-03-09 14:14:00,
2013-03-10 01:20:00,64.9,62.2,30.08,SSE,157,0.0,1.0,91,0.00,,,-99.99,WeatherLink 5.9.3,2013-03-09 14:20:00,
2013-03-10 01:26:00,64.0,61.3,30.08,SSE,162,0.0,0.0,91,0.00,,,0.00,Wunderground v.1.15,2013-03-09 14:26:00,
2013-03-10 01:32:00,63.9,61.5,30.08,SSE,161,0.0,0.0,92,0.00,,,0.00,Wunderground v.1.15,2013-03-09 14:32:00,
2013-03-10 01:38:00,63.7,61.3,30.08,SSE,161,0.0,0.0,92,0.00,,,0.00,Wunderground v.1.15,2013-03-09 14:38:00,
2013-03-10 01:43:00,63.6,61.2,30.08,SSE,161,0.0,0.0,92,0.00,,,0.00,Wunderground v.1.15,2013-03-09 14:43:00,
2013-03-10 01:49:00,63.5,61.1,30.08,WNW,282,0.0,0.0,92,0.00,,,0.00,Wunderground v.1.15,2013-03-09 14:49:00,
2013-03-10 01:54:00,63.4,61.3,30.08,WNW,282,0.0,0.0,93,0.00,,,0.00,Wunderground v.1.15,2013-03-09 14:54:00,
2013-03-10 02:00:00,63.4,61.0,30.08,North,-999,0.0,0.0,92,0.00,,,-99.99,WeatherLink 5.9.3,2013-03-09 15:00:00,
2013-03-10 02:05:00,62.9,60.5,30.08,WNW,282,0.0,0.0,92,0.00,,,0.00,Wunderground v.1.15,2013-03-09 15:05:00,
2013-03-10 02:10:00,62.7,60.3,30.08,WNW,282,0.0,0.0,92,0.00,,,0.00,Wunderground v.1.15,2013-03-09 15:10:00,
2013-03-10 02:15:00,62.6,60.5,30.07,West,281,0.0,0.0,93,0.00,,,0.00,Wunderground v.1.15,2013-03-09 15:15:00,
2013-03-10 02:21:00,62.6,60.5,30.07,North,-999,0.0,0.0,93,0.00,,,-99.99,WeatherLink 5.9.3,2013-03-09 15:21:00,
2013-03-10 02:26:00,62.3,60.2,30.07,WNW,282,0.0,0.0,93,0.00,,,0.00,Wunderground v.1.15,2013-03-09 15:26:00,
2013-03-10 02:31:00,62.3,60.2,30.07,West,281,0.0,0.0,93,0.00,,,0.00,Wunderground v.1.15,2013-03-09 15:31:00,
2013-03-10 02:36:00,62.3,60.6,30.07,WNW,282,0.0,0.0,94,0.00,,,0.00,Wunderground v.1.15,2013-03-09 15:36:00,
2013-03-10 02:41:00,62.4,60.3,30.07,North,-999,0.0,0.0,93,0.00,,,-99.99,WeatherLink 5.9.3,2013-03-09 15:41:00,
2013-03-10 02:46:00,62.1,60.4,30.07,WNW,282,0.0,0.0,94,0.00,,,0.00,Wunderground v.1.15,2013-03-09 15:46:00,
2013-03-10 02:51:00,62.1,60.4,30.07,WNW,282,0.0,0.0,94,0.00,,,0.00,Wunderground v.1.15,2013-03-09 15:51:00,
2013-03-10 02:56:00,61.8,60.1,30.07,West,281,0.0,0.0,94,0.00,,,0.00,Wunderground v.1.15,2013-03-09 15:56:00,
2013-03-10 03:01:00,62.1,60.4,30.07,North,-999,0.0,0.0,94,0.00,,,-99.99,WeatherLink 5.9.3,2013-03-09 16:01:00,
2013-03-10 03:06:00,61.8,60.1,30.07,WNW,282,0.0,0.0,94,0.00,,,0.00,Wunderground v.1.15,2013-03-09 16:06:00,
2013-03-10 03:11:00,61.8,60.1,30.07,WNW,282,0.0,0.0,94,0.00,,,0.00,Wunderground v.1.15,2013-03-09 16:11:00,
2013-03-10 03:16:00,61.7,60.0,30.07,West,281,0.0,0.0,94,0.00,,,0.00,Wunderground v.1.15,2013-03-09 16:16:00,
2013-03-10 03:21:00,61.5,59.8,30.07,WNW,282,0.0,0.0,94,0.00,,,0.00,Wunderground v.1.15,2013-03-09 16:21:00,
2013-03-10 03:26:00,61.5,59.8,30.07,West,281,0.0,0.0,94,0.00,,,0.00,Wunderground v.1.15,2013-03-09 16:26:00,
2013-03-10 03:31:00,61.6,60.2,30.07,WNW,282,0.0,0.0,95,0.00,,,0.00,Wunderground v.1.15,2013-03-09 16:31:00,
2013-03-10 03:36:00,61.7,60.3,30.06,West,281,0.0,0.0,95,0.00,,,0.00,Wunderground v.1.15,2013-03-09 16:36:00,
2013-03-10 03:41:00,61.6,59.9,30.06,WNW,282,0.0,0.0,94,0.00,,,0.00,Wunderground v.1.15,2013-03-09 16:41:00,
2013-03-10 03:46:00,61.4,59.7,30.06,West,281,0.0,0.0,94,0.00,,,0.00,Wunderground v.1.15,2013-03-09 16:46:00,
2013-03-10 03:51:00,61.4,60.0,30.06,West,281,0.0,0.0,95,0.00,,,0.00,Wunderground v.1.15,2013-03-09 16:51:00,
2013-03-10 03:56:00,61.2,59.5,30.06,West,281,0.0,0.0,94,0.00,,,0.00,Wunderground v.1.15,2013-03-09 16:56:00,
2013-03-10 04:01:00,61.2,59.8,30.06,WNW,282,0.0,0.0,95,0.00,,,0.00,Wunderground v.1.15,2013-03-09 17:01:00,
2013-03-10 04:06:00,61.2,59.8,30.06,West,281,0.0,0.0,95,0.00,,,0.00,Wunderground v.1.15,2013-03-09 17:06:00,
2013-03-10 04:11:00,61.1,59.7,30.06,West,281,0.0,0.0,95,0.00,,,0.00,Wunderground v.1.15,2013-03-09 17:11:00,
2013-03-10 04:16:00,61.0,59.6,30.06,West,281,0.0,0.0,95,0.00,,,0.00,Wunderground v.1.15,2013-03-09 17:16:00,
2013-03-10 04:21:00,61.0,59.6,30.06,WNW,282,0.0,0.0,95,0.00,,,0.00,Wunderground v.1.15,2013-03-09 17:21:00,
2013-03-10 04:26:00,61.0,59.6,30.06,West,281,0.0,0.0,95,0.00,,,0.00,Wunderground v.1.15,2013-03-09 17:26:00,
2013-03-10 04:31:00,60.9,59.5,30.06,West,281,0.0,0.0,95,0.00,,,0.00,Wunderground v.1.15,2013-03-09 17:31:00,
2013-03-10 04:36:00,60.7,59.3,30.06,WNW,282,0.0,0.0,95,0.00,,,0.00,Wunderground v.1.15,2013-03-09 17:36:00,
2013-03-10 04:41:00,60.7,59.3,30.06,WNW,282,0.0,0.0,95,0.00,,,0.00,Wunderground v.1.15,2013-03-09 17:41:00,
2013-03-10 04:46:00,60.6,59.2,30.06,West,281,0.0,0.0,95,0.00,,,0.00,Wunderground v.1.15,2013-03-09 17:46:00,
2013-03-10 04:51:00,60.6,59.2,30.07,WNW,282,0.0,0.0,95,0.00,,,0.00,Wunderground v.1.15,2013-03-09 17:51:00,
2013-03-10 04:56:00,60.6,59.2,30.07,WNW,282,0.0,0.0,95,0.00,,,0.00,Wunderground v.1.15,2013-03-09 17:56:00,
2013-03-10 05:01:00,60.6,59.2,30.07,WNW,282,0.0,0.0,95,0.00,,,0.00,Wunderground v.1.15,2013-03-09 18:01:00,
2013-03-10 05:06:00,60.5,59.1,30.07,West,281,0.0,0.0,95,0.00,,,0.00,Wunderground v.1.15,2013-03-09 18:06:00,
2013-03-10 05:11:00,60.6,59.2,30.07,WNW,282,0.0,0.0,95,0.00,,,0.00,Wunderground v.1.15,2013-03-09 18:11:00,
2013-03-10 05:17:00,60.5,59.1,30.07,WNW,282,0.0,0.0,95,0.00,,,0.00,Wunderground v.1.15,2013-03-09 18:17:00,
2013-03-10 05:22:00,60.4,59.0,30.07,West,281,0.0,0.0,95,0.00,,,0.00,Wunderground v.1.15,2013-03-09 18:22:00,
2013-03-10 05:27:00,60.3,58.9,30.07,West,281,0.0,0.0,95,0.00,,,0.00,Wunderground v.1.15,2013-03-09 18:27:00,
2013-03-10 05:32:00,60.3,59.2,30.07,West,281,0.0,0.0,96,0.00,,,0.00,Wunderground v.1.15,2013-03-09 18:32:00,
2013-03-10 05:37:00,60.3,59.2,30.07,West,281,0.0,0.0,96,0.00,,,0.00,Wunderground v.1.15,2013-03-09 18:37:00,
2013-03-10 05:42:00,60.3,59.2,30.07,WNW,282,0.0,0.0,96,0.00,,,0.00,Wunderground v.1.15,2013-03-09 18:42:00,
2013-03-10 05:47:00,60.3,58.9,30.07,West,281,0.0,0.0,95,0.00,,,0.00,Wunderground v.1.15,2013-03-09 18:47:00,
2013-03-10 05:52:00,60.2,58.8,30.07,WNW,282,0.0,0.0,95,0.00,,,0.00,Wunderground v.1.15,2013-03-09 18:52:00,
2013-03-10 05:57:00,60.2,59.1,30.08,WNW,292,0.0,1.0,96,0.00,,,0.00,Wunderground v.1.15,2013-03-09 18:57:00,
2013-03-10 06:02:00,60.3,59.2,30.08,WNW,292,0.0,0.0,96,0.00,,,0.00,Wunderground v.1.15,2013-03-09 19:02:00,
2013-03-10 06:07:00,60.2,59.1,30.08,WNW,292,0.0,0.0,96,0.00,,,0.00,Wunderground v.1.15,2013-03-09 19:07:00,
2013-03-10 06:12:00,60.2,59.1,30.08,WNW,291,0.0,0.0,96,0.00,,,0.00,Wunderground v.1.15,2013-03-09 19:12:00,
2013-03-10 06:17:00,60.1,59.0,30.08,WNW,292,0.0,0.0,96,0.00,,,0.00,Wunderground v.1.15,2013-03-09 19:17:00,
2013-03-10 06:22:00,60.1,59.0,30.08,WNW,291,0.0,0.0,96,0.00,,,0.00,Wunderground v.1.15,2013-03-09 19:22:00,
2013-03-10 06:27:00,60.0,58.6,30.08,WNW,291,0.0,0.0,95,0.00,,,0.00,Wunderground v.1.15,2013-03-09 19:27:00,
2013-03-10 06:32:00,59.7,58.3,30.08,WNW,291,0.0,0.0,95,0.00,,,0.00,Wunderground v.1.15,2013-03-09 19:32:00,
2013-03-10 06:37:00,59.8,58.7,30.08,WNW,292,0.0,0.0,96,0.00,,,0.00,Wunderground v.1.15,2013-03-09 19:37:00,
2013-03-10 06:42:00,59.9,58.8,30.08,WNW,292,0.0,0.0,96,0.00,,,0.00,Wunderground v.1.15,2013-03-09 19:42:00,
2013-03-10 06:47:00,59.8,58.7,30.08,WNW,291,0.0,0.0,96,0.00,,,0.00,Wunderground v.1.15,2013-03-09 19:47:00,
2013-03-10 06:52:00,59.7,58.6,30.08,WNW,291,0.0,0.0,96,0.00,,,0.00,Wunderground v.1.15,2013-03-09 19:52:00,
2013-03-10 06:57:00,59.6,58.5,30.09,WNW,292,0.0,0.0,96,0.00,,,0.00,Wunderground v.1.15,2013-03-09 19:57:00,
2013-03-10 07:02:00,59.5,58.4,30.09,WNW,292,0.0,0.0,96,0.00,,,0.00,Wunderground v.1.15,2013-03-09 20:02:00,
2013-03-10 07:07:00,59.6,58.5,30.09,WNW,292,0.0,0.0,96,0.00,,,0.00,Wunderground v.1.15,2013-03-09 20:07:00,
2013-03-10 07:12:00,60.0,58.9,30.09,WNW,298,0.0,1.0,96,0.00,,,0.00,Wunderground v.1.15,2013-03-09 20:12:00,
2013-03-10 07:17:00,60.2,59.1,30.10,WNW,299,0.0,1.0,96,0.00,,,0.00,Wunderground v.1.15,2013-03-09 20:17:00,
2013-03-10 07:22:00,60.4,59.3,30.10,WNW,298,0.0,0.0,96,0.00,,,0.00,Wunderground v.1.15,2013-03-09 20:22:00,
2013-03-10 07:27:00,60.5,59.4,30.10,WNW,298,0.0,1.0,96,0.00,,,0.00,Wunderground v.1.15,2013-03-09 20:27:00,
2013-03-10 07:32:00,60.7,59.6,30.10,WNW,299,0.0,0.0,96,0.00,,,0.00,Wunderground v.1.15,2013-03-09 20:32:00,
2013-03-10 07:37:00,61.1,60.0,30.10,WNW,299,0.0,1.0,96,0.00,,,0.00,Wunderground v.1.15,2013-03-09 20:37:00,
2013-03-10 07:42:00,62.3,61.4,30.10,WNW,299,0.0,0.0,97,0.00,,,0.00,Wunderground v.1.15,2013-03-09 20:42:00,
2013-03-10 07:47:00,62.5,61.6,30.10,WNW,297,0.0,1.0,97,0.00,,,0.00,Wunderground v.1.15,2013-03-09 20:47:00,
2013-03-10 07:52:00,63.0,62.1,30.10,WNW,299,0.0,0.0,97,0.00,,,0.00,Wunderground v.1.15,2013-03-09 20:52:00,
2013-03-10 07:57:00,63.6,62.7,30.10,WNW,297,0.0,0.0,97,0.00,,,0.00,Wunderground v.1.15,2013-03-09 20:57:00,
2013-03-10 08:02:00,64.2,63.0,30.10,WNW,299,0.0,1.0,96,0.00,,,0.00,Wunderground v.1.15,2013-03-09 21:02:00,
2013-03-10 08:07:00,64.4,62.6,30.11,WNW,299,0.0,1.0,94,0.00,,,0.00,Wunderground v.1.15,2013-03-09 21:07:00,
2013-03-10 08:12:00,64.9,62.8,30.11,WNW,298,0.0,0.0,93,0.00,,,0.00,Wunderground v.1.15,2013-03-09 21:12:00,
2013-03-10 08:18:00,65.9,63.2,30.11,WNW,299,0.0,0.0,91,0.00,,,0.00,Wunderground v.1.15,2013-03-09 21:18:00,
2013-03-10 08:23:00,66.6,63.6,30.11,WNW,298,0.0,0.0,90,0.00,,,0.00,Wunderground v.1.15,2013-03-09 21:23:00,
2013-03-10 08:28:00,67.2,63.5,30.12,WSW,248,0.0,1.0,88,0.00,,,0.00,Wunderground v.1.15,2013-03-09 21:28:00,
2013-03-10 08:33:00,67.7,64.0,30.11,WSW,245,0.0,1.0,88,0.00,,,0.00,Wunderground v.1.15,2013-03-09 21:33:00,
2013-03-10 08:38:00,68.6,64.6,30.11,WSW,254,0.0,1.0,87,0.00,,,0.00,Wunderground v.1.15,2013-03-09 21:38:00,
2013-03-10 08:43:00,69.3,64.6,30.12,NW,307,0.0,1.0,85,0.00,,,0.00,Wunderground v.1.15,2013-03-09 21:43:00,
2013-03-10 08:48:00,70.2,65.1,30.12,SW,224,0.0,1.0,84,0.00,,,0.00,Wunderground v.1.15,2013-03-09 21:48:00,
2013-03-10 08:53:00,70.5,64.7,30.12,South,191,1.0,3.0,82,0.00,,,0.00,Wunderground v.1.15,2013-03-09 21:53:00,
2013-03-10 08:58:00,70.6,64.8,30.12,WNW,283,0.0,3.0,82,0.00,,,0.00,Wunderground v.1.15,2013-03-09 21:58:00,
2013-03-10 09:03:00,71.5,65.0,30.12,ENE,59,0.0,2.0,80,0.00,,,0.00,Wunderground v.1.15,2013-03-09 22:03:00,
2013-03-10 09:08:00,72.5,65.6,30.12,SSW,195,0.0,2.0,79,0.00,,,0.00,Wunderground v.1.15,2013-03-09 22:08:00,
2013-03-10 09:13:00,73.1,65.1,30.13,ENE,65,0.0,1.0,76,0.00,,,0.00,Wunderground v.1.15,2013-03-09 22:13:00,
2013-03-10 09:18:00,73.4,65.4,30.13,ESE,122,0.0,2.0,76,0.00,,,0.00,Wunderground v.1.15,2013-03-09 22:18:00,
2013-03-10 09:23:00,73.0,65.0,30.13,SE,140,0.0,1.0,76,0.00,,,0.00,Wunderground v.1.15,2013-03-09 22:23:00,
2013-03-10 09:28:00,73.5,65.8,30.13,NW,310,0.0,2.0,77,0.00,,,0.00,Wunderground v.1.15,2013-03-09 22:28:00,
2013-03-10 09:33:00,73.9,65.5,30.13,South,181,0.0,3.0,75,0.00,,,0.00,Wunderground v.1.15,2013-03-09 22:33:00,
2013-03-10 09:38:00,74.4,65.6,30.12,WNW,295,1.0,3.0,74,0.00,,,0.00,Wunderground v.1.15,2013-03-09 22:38:00,
2013-03-10 09:43:00,74.8,66.0,30.12,NW,312,0.0,1.0,74,0.00,,,0.00,Wunderground v.1.15,2013-03-09 22:43:00,
2013-03-10 09:48:00,75.6,65.5,30.12,SSW,197,3.0,3.0,71,0.00,,,0.00,Wunderground v.1.15,2013-03-09 22:48:00,
2013-03-10 09:53:00,75.4,65.7,30.12,WSW,243,1.0,1.0,72,0.00,,,0.00,Wunderground v.1.15,2013-03-09 22:53:00,
2013-03-10 09:58:00,76.3,66.2,30.12,SW,236,1.0,1.0,71,0.00,,,0.00,Wunderground v.1.15,2013-03-09 22:58:00,
2013-03-10 10:03:00,77.0,66.0,30.12,NNE,29,0.0,2.0,69,0.00,,,0.00,Wunderground v.1.15,2013-03-09 23:03:00,
2013-03-10 10:08:00,77.2,66.2,30.12,NNE,19,0.0,2.0,69,0.00,,,0.00,Wunderground v.1.15,2013-03-09 23:08:00,
2013-03-10 10:13:00,77.6,65.8,30.12,ENE,59,4.0,4.0,67,0.00,,,0.00,Wunderground v.1.15,2013-03-09 23:13:00,
2013-03-10 10:18:00,77.1,65.3,30.12,NNE,18,2.0,5.0,67,0.00,,,0.00,Wunderground v.1.15,2013-03-09 23:18:00,
2013-03-10 10:23:00,76.6,64.4,30.12,ENE,72,2.0,5.0,66,0.00,,,0.00,Wunderground v.1.15,2013-03-09 23:23:00,
2013-03-10 10:28:00,76.1,64.8,30.12,East,82,3.0,6.0,68,0.00,,,0.00,Wunderground v.1.15,2013-03-09 23:28:00,
2013-03-10 10:33:00,76.5,65.1,30.12,NNE,30,3.0,5.0,68,0.00,,,0.00,Wunderground v.1.15,2013-03-09 23:33:00,
2013-03-10 10:38:00,76.7,64.9,30.12,NNW,343,3.0,5.0,67,0.00,,,0.00,Wunderground v.1.15,2013-03-09 23:38:00,
2013-03-10 10:43:00,77.4,64.7,30.12,NNE,26,3.0,6.0,65,0.00,,,0.00,Wunderground v.1.15,2013-03-09 23:43:00,
2013-03-10 10:48:00,77.5,64.8,30.12,North,4,3.0,6.0,65,0.00,,,0.00,Wunderground v.1.15,2013-03-09 23:48:00,
2013-03-10 10:53:00,77.5,63.9,30.12,ENE,68,5.0,6.0,63,0.00,,,0.00,Wunderground v.1.15,2013-03-09 23:53:00,
2013-03-10 10:58:00,77.4,63.4,30.12,NE,46,2.0,7.0,62,0.00,,,0.00,Wunderground v.1.15,2013-03-09 23:58:00,
2013-03-10 11:03:00,77.6,63.5,30.12,NE,34,6.0,7.0,62,0.00,,,0.00,Wunderground v.1.15,2013-03-10 00:03:00,
2013-03-10 11:09:00,77.3,63.3,30.11,ENE,68,3.0,8.0,62,0.00,,,0.00,Wunderground v.1.15,2013-03-10 00:09:00,
2013-03-10 11:14:00,77.6,63.1,30.11,NNE,21,4.0,8.0,61,0.00,,,0.00,Wunderground v.1.15,2013-03-10 00:14:00,
2013-03-10 11:19:00,77.9,63.8,30.11,NNE,14,2.0,8.0,62,0.00,,,0.00,Wunderground v.1.15,2013-03-10 00:19:00,
2013-03-10 11:24:00,78.1,64.5,30.11,NNE,33,1.0,4.0,63,0.00,,,0.00,Wunderground v.1.15,2013-03-10 00:24:00,
2013-03-10 11:29:00,78.5,63.9,30.11,NE,45,3.0,5.0,61,0.00,,,0.00,Wunderground v.1.15,2013-03-10 00:29:00,
2013-03-10 11:34:00,78.7,63.6,30.11,NNE,30,2.0,4.0,60,0.00,,,0.00,Wunderground v.1.15,2013-03-10 00:34:00,
2013-03-10 11:39:00,79.1,64.5,30.10,North,3,0.0,4.0,61,0.00,,,0.00,Wunderground v.1.15,2013-03-10 00:39:00,
2013-03-10 11:44:00,79.3,64.7,30.10,ENE,72,2.0,4.0,61,0.00,,,0.00,Wunderground v.1.15,2013-03-10 00:44:00,
2013-03-10 11:49:00,78.7,64.6,30.10,NE,51,1.0,4.0,62,0.00,,,0.00,Wunderground v.1.15,2013-03-10 00:49:00,
2013-03-10 11:54:00,79.4,65.7,30.10,ENE,63,1.0,4.0,63,0.00,,,0.00,Wunderground v.1.15,2013-03-10 00:54:00,
2013-03-10 11:59:00,79.8,65.2,30.09,NE,56,3.0,4.0,61,0.00,,,0.00,Wunderground v.1.15,2013-03-10 00:59:00,
2013-03-10 12:04:00,80.0,63.9,30.09,NE,52,3.0,6.0,58,0.00,,,0.00,Wunderground v.1.15,2013-03-10 01:04:00,
2013-03-10 12:09:00,80.3,64.2,30.09,NNW,339,1.0,6.0,58,0.00,,,0.00,Wunderground v.1.15,2013-03-10 01:09:00,
2013-03-10 12:14:00,80.5,64.9,30.09,NW,321,1.0,4.0,59,0.00,,,0.00,Wunderground v.1.15,2013-03-10 01:14:00,
2013-03-10 12:19:00,81.0,65.8,30.09,North,356,1.0,4.0,60,0.00,,,0.00,Wunderground v.1.15,2013-03-10 01:19:00,
2013-03-10 12:24:00,81.8,64.6,30.09,SE,134,1.0,2.0,56,0.00,,,0.00,Wunderground v.1.15,2013-03-10 01:24:00,
2013-03-10 12:29:00,81.7,65.0,30.08,NNW,339,1.0,5.0,57,0.00,,,0.00,Wunderground v.1.15,2013-03-10 01:29:00,
2013-03-10 12:34:00,81.6,64.9,30.08,SW,229,1.0,4.0,57,0.00,,,0.00,Wunderground v.1.15,2013-03-10 01:34:00,
2013-03-10 12:39:00,81.7,64.5,30.08,South,183,1.0,4.0,56,0.00,,,0.00,Wunderground v.1.15,2013-03-10 01:39:00,
2013-03-10 12:44:00,82.0,64.8,30.08,NE,46,1.0,2.0,56,0.00,,,0.00,Wunderground v.1.15,2013-03-10 01:44:00,
2013-03-10 12:49:00,81.9,64.1,30.08,SE,124,0.0,5.0,55,0.00,,,0.00,Wunderground v.1.15,2013-03-10 01:49:00,
2013-03-10 12:54:00,80.8,64.1,30.08,East,100,2.0,3.0,57,0.00,,,0.00,Wunderground v.1.15,2013-03-10 01:54:00,
2013-03-10 12:59:00,80.2,65.1,30.07,East,91,2.0,3.0,60,0.00,,,0.00,Wunderground v.1.15,2013-03-10 01:59:00,
2013-03-10 13:04:00,80.6,65.4,30.07,SW,226,1.0,3.0,60,0.00,,,0.00,Wunderground v.1.15,2013-03-10 02:04:00,
2013-03-10 13:09:00,80.9,64.7,30.07,SW,218,2.0,3.0,58,0.00,,,0.00,Wunderground v.1.15,2013-03-10 02:09:00,
2013-03-10 13:14:00,81.6,62.8,30.07,NE,41,3.0,7.0,53,0.00,,,0.00,Wunderground v.1.15,2013-03-10 02:14:00,
2013-03-10 13:19:00,81.5,61.6,30.07,SSW,192,0.0,7.0,51,0.00,,,0.00,Wunderground v.1.15,2013-03-10 02:19:00,
2013-03-10 13:24:00,81.7,62.4,30.06,NNE,26,0.0,4.0,52,0.00,,,0.00,Wunderground v.1.15,2013-03-10 02:24:00,
2013-03-10 13:29:00,82.0,64.2,30.06,NNE,32,0.0,4.0,55,0.00,,,0.00,Wunderground v.1.15,2013-03-10 02:29:00,
2013-03-10 13:34:00,82.2,62.8,30.06,SSW,195,1.0,3.0,52,0.00,,,0.00,Wunderground v.1.15,2013-03-10 02:34:00,
2013-03-10 13:39:00,82.3,62.9,30.06,ESE,103,2.0,5.0,52,0.00,,,0.00,Wunderground v.1.15,2013-03-10 02:39:00,
2013-03-10 13:44:00,82.1,62.7,30.05,ESE,110,2.0,4.0,52,0.00,,,0.00,Wunderground v.1.15,2013-03-10 02:44:00,
2013-03-10 13:49:00,81.9,63.1,30.05,SSE,150,1.0,4.0,53,0.00,,,0.00,Wunderground v.1.15,2013-03-10 02:49:00,
2013-03-10 13:54:00,82.0,63.2,30.05,NE,34,2.0,4.0,53,0.00,,,0.00,Wunderground v.1.15,2013-03-10 02:54:00,
2013-03-10 13:59:00,82.0,62.6,30.05,ENE,65,4.0,4.0,52,0.00,,,0.00,Wunderground v.1.15,2013-03-10 02:59:00,
2013-03-10 14:04:00,82.3,62.4,30.04,ENE,60,3.0,5.0,51,0.00,,,0.00,Wunderground v.1.15,2013-03-10 03:04:00,
2013-03-10 14:09:00,82.3,63.5,30.04,ENE,60,2.0,5.0,53,0.00,,,0.00,Wunderground v.1.15,2013-03-10 03:09:00,
2013-03-10 14:14:00,82.4,63.5,30.04,SE,141,1.0,4.0,53,0.00,,,0.00,Wunderground v.1.15,2013-03-10 03:14:00,
2013-03-10 14:19:00,83.2,62.6,30.04,ESE,115,2.0,4.0,50,0.00,,,0.00,Wunderground v.1.15,2013-03-10 03:19:00,
2013-03-10 14:24:00,83.7,62.5,30.04,South,175,2.0,3.0,49,0.00,,,0.00,Wunderground v.1.15,2013-03-10 03:24:00,
2013-03-10 14:29:00,83.7,62.5,30.04,NNE,33,0.0,6.0,49,0.00,,,0.00,Wunderground v.1.15,2013-03-10 03:29:00,
2013-03-10 14:34:00,83.7,62.5,30.04,ENE,61,1.0,3.0,49,0.00,,,0.00,Wunderground v.1.15,2013-03-10 03:34:00,
2013-03-10 14:39:00,83.6,62.4,30.03,NNE,25,2.0,6.0,49,0.00,,,0.00,Wunderground v.1.15,2013-03-10 03:39:00,
2013-03-10 14:44:00,83.5,63.5,30.03,ENE,78,2.0,4.0,51,0.00,,,0.00,Wunderground v.1.15,2013-03-10 03:44:00,
2013-03-10 14:49:00,83.4,62.2,30.03,NE,45,2.0,4.0,49,0.00,,,0.00,Wunderground v.1.15,2013-03-10 03:49:00,
2013-03-10 14:54:00,83.2,62.6,30.03,NE,34,2.0,5.0,50,0.00,,,0.00,Wunderground v.1.15,2013-03-10 03:54:00,
2013-03-10 14:59:00,82.8,63.4,30.03,NNE,24,0.0,5.0,52,0.00,,,0.00,Wunderground v.1.15,2013-03-10 03:59:00,
2013-03-10 15:04:00,82.6,62.6,30.03,NNW,333,0.0,2.0,51,0.00,,,0.00,Wunderground v.1.15,2013-03-10 04:04:00,
2013-03-10 15:09:00,82.3,63.5,30.02,NNE,25,2.0,4.0,53,0.00,,,0.00,Wunderground v.1.15,2013-03-10 04:09:00,
2013-03-10 15:14:00,82.0,62.1,30.02,NE,42,0.0,4.0,51,0.00,,,0.00,Wunderground v.1.15,2013-03-10 04:14:00,
2013-03-10 15:19:00,81.7,62.9,30.02,NE,45,0.0,4.0,53,0.00,,,0.00,Wunderground v.1.15,2013-03-10 04:19:00,
2013-03-10 15:24:00,81.8,61.9,30.02,SSW,193,3.0,4.0,51,0.00,,,0.00,Wunderground v.1.15,2013-03-10 04:24:00,
2013-03-10 15:29:00,81.8,61.9,30.02,ENE,77,0.0,4.0,51,0.00,,,0.00,Wunderground v.1.15,2013-03-10 04:29:00,
2013-03-10 15:35:00,81.7,62.4,30.02,NE,37,1.0,3.0,52,0.00,,,0.00,Wunderground v.1.15,2013-03-10 04:35:00,
2013-03-10 15:40:00,81.6,62.8,30.02,East,79,1.0,1.0,53,0.00,,,0.00,Wunderground v.1.15,2013-03-10 04:40:00,
2013-03-10 15:45:00,82.2,62.8,30.02,NE,42,0.0,2.0,52,0.00,,,0.00,Wunderground v.1.15,2013-03-10 04:45:00,
2013-03-10 15:50:00,82.8,62.8,30.02,ENE,72,5.0,5.0,51,0.00,,,0.00,Wunderground v.1.15,2013-03-10 04:50:00,
2013-03-10 15:55:00,82.7,63.3,30.01,NNE,30,2.0,7.0,52,0.00,,,0.00,Wunderground v.1.15,2013-03-10 04:55:00,
2013-03-10 16:00:00,82.7,62.7,30.02,ENE,67,2.0,6.0,51,0.00,,,-99.99,WeatherLink 5.9.3,2013-03-10 05:00:00,
2013-03-10 16:01:00,83.3,63.3,30.01,NNE,19,1.0,2.0,51,0.00,,,0.00,Wunderground v.1.15,2013-03-10 05:01:00,
2013-03-10 16:06:00,83.8,63.7,30.01,NNE,17,1.0,4.0,51,0.00,,,0.00,Wunderground v.1.15,2013-03-10 05:06:00,
2013-03-10 16:11:00,83.2,63.2,30.01,NNE,22,1.0,3.0,51,0.00,,,-99.99,WeatherLink 5.9.3,2013-03-10 05:11:00,
2013-03-10 16:16:00,84.0,64.5,30.01,NE,55,6.0,10.0,52,0.00,,,0.00,Wunderground v.1.15,2013-03-10 05:16:00,
2013-03-10 16:21:00,82.8,65.0,30.01,East,94,2.0,6.0,55,0.00,,,0.00,Wunderground v.1.15,2013-03-10 05:21:00,
2013-03-10 16:26:00,81.6,65.4,30.01,ESE,103,2.0,9.0,58,0.00,,,0.00,Wunderground v.1.15,2013-03-10 05:26:00,
2013-03-10 16:31:00,80.8,65.1,30.01,SSW,195,3.0,6.0,59,0.00,,,0.00,Wunderground v.1.15,2013-03-10 05:31:00,
2013-03-10 16:36:00,80.7,65.0,30.01,ENE,59,5.0,8.0,59,0.00,,,0.00,Wunderground v.1.15,2013-03-10 05:36:00,
2013-03-10 16:41:00,80.8,65.1,30.01,NE,47,2.0,5.0,59,0.00,,,0.00,Wunderground v.1.15,2013-03-10 05:41:00,
2013-03-10 16:46:00,81.0,65.3,30.01,ESE,103,5.0,7.0,59,0.00,,,0.00,Wunderground v.1.15,2013-03-10 05:46:00,
2013-03-10 16:51:00,80.5,64.9,30.01,East,98,3.0,6.0,59,0.00,,,0.00,Wunderground v.1.15,2013-03-10 05:51:00,
2013-03-10 16:56:00,79.9,64.3,30.01,NE,41,5.0,8.0,59,0.00,,,0.00,Wunderground v.1.15,2013-03-10 05:56:00,
2013-03-10 17:01:00,80.6,64.9,30.01,ENE,67,3.0,8.0,59,0.00,,,-99.99,WeatherLink 5.9.3,2013-03-10 06:01:00,
2013-03-10 17:06:00,79.7,65.1,30.01,East,80,2.0,5.0,61,0.00,,,0.00,Wunderground v.1.15,2013-03-10 06:06:00,
2013-03-10 17:11:00,79.9,65.2,30.01,NE,46,2.0,5.0,61,0.00,,,0.00,Wunderground v.1.15,2013-03-10 06:11:00,
2013-03-10 17:16:00,80.0,64.4,30.01,ENE,69,3.0,7.0,59,0.00,,,0.00,Wunderground v.1.15,2013-03-10 06:16:00,
2013-03-10 17:21:00,79.8,64.7,30.01,NNE,20,3.0,5.0,60,0.00,,,0.00,Wunderground v.1.15,2013-03-10 06:21:00,
2013-03-10 17:26:00,79.9,65.2,30.02,South,170,5.0,8.0,61,0.00,,,0.00,Wunderground v.1.15,2013-03-10 06:26:00,
2013-03-10 17:31:00,79.8,64.7,30.02,SSE,153,3.0,4.0,60,0.00,,,0.00,Wunderground v.1.15,2013-03-10 06:31:00,
2013-03-10 17:36:00,79.8,64.7,30.02,ENE,58,6.0,8.0,60,0.00,,,0.00,Wunderground v.1.15,2013-03-10 06:36:00,
2013-03-10 17:41:00,79.5,64.4,30.02,ENE,62,1.0,4.0,60,0.00,,,0.00,Wunderground v.1.15,2013-03-10 06:41:00,
2013-03-10 17:46:00,79.0,63.9,30.02,NE,49,2.0,6.0,60,0.00,,,0.00,Wunderground v.1.15,2013-03-10 06:46:00,
2013-03-10 17:51:00,78.4,63.8,30.02,NE,55,1.0,4.0,61,0.00,,,0.00,Wunderground v.1.15,2013-03-10 06:51:00,
2013-03-10 17:56:00,78.1,64.0,30.02,East,79,5.0,6.0,62,0.00,,,0.00,Wunderground v.1.15,2013-03-10 06:56:00,
2013-03-10 18:01:00,78.1,64.5,30.02,SE,126,4.0,4.0,63,0.00,,,0.00,Wunderground v.1.15,2013-03-10 07:01:00,
2013-03-10 18:06:00,77.9,64.3,30.02,East,93,4.0,6.0,63,0.00,,,0.00,Wunderground v.1.15,2013-03-10 07:06:00,
2013-03-10 18:11:00,77.7,64.1,30.02,NE,42,5.0,6.0,63,0.00,,,0.00,Wunderground v.1.15,2013-03-10 07:11:00,
2013-03-10 18:16:00,77.4,64.3,30.02,ENE,66,7.0,7.0,64,0.00,,,0.00,Wunderground v.1.15,2013-03-10 07:16:00,
2013-03-10 18:21:00,77.2,64.5,30.02,East,91,3.0,6.0,65,0.00,,,0.00,Wunderground v.1.15,2013-03-10 07:21:00,
2013-03-10 18:26:00,76.6,64.4,30.02,SSW,211,4.0,7.0,66,0.00,,,0.00,Wunderground v.1.15,2013-03-10 07:26:00,
2013-03-10 18:31:00,76.0,64.2,30.02,East,91,1.0,3.0,67,0.00,,,0.00,Wunderground v.1.15,2013-03-10 07:31:00,
2013-03-10 18:36:00,75.6,64.3,30.02,NNE,24,2.0,5.0,68,0.00,,,0.00,Wunderground v.1.15,2013-03-10 07:36:00,
2013-03-10 18:41:00,75.2,64.3,30.02,East,100,2.0,4.0,69,0.00,,,0.00,Wunderground v.1.15,2013-03-10 07:41:00,
2013-03-10 18:46:00,74.9,64.5,30.03,NE,46,1.0,6.0,70,0.00,,,0.00,Wunderground v.1.15,2013-03-10 07:46:00,
2013-03-10 18:51:00,74.6,64.6,30.03,SE,129,3.0,3.0,71,0.00,,,0.00,Wunderground v.1.15,2013-03-10 07:51:00,
2013-03-10 18:56:00,74.3,64.7,30.03,South,186,3.0,3.0,72,0.00,,,0.00,Wunderground v.1.15,2013-03-10 07:56:00,
2013-03-10 19:01:00,74.0,64.4,30.03,East,98,1.0,1.0,72,0.00,,,0.00,Wunderground v.1.15,2013-03-10 08:01:00,
2013-03-10 19:06:00,73.7,64.1,30.03,NE,52,2.0,6.0,72,0.00,,,0.00,Wunderground v.1.15,2013-03-10 08:06:00,
2013-03-10 19:11:00,73.5,64.3,30.03,ENE,75,1.0,3.0,73,0.00,,,0.00,Wunderground v.1.15,2013-03-10 08:11:00,
2013-03-10 19:16:00,73.3,64.1,30.04,East,89,4.0,4.0,73,0.00,,,0.00,Wunderground v.1.15,2013-03-10 08:16:00,
2013-03-10 19:21:00,73.1,64.3,30.04,NE,51,1.0,2.0,74,0.00,,,0.00,Wunderground v.1.15,2013-03-10 08:21:00,
2013-03-10 19:26:00,72.8,64.0,30.04,SSE,157,2.0,3.0,74,0.00,,,0.00,Wunderground v.1.15,2013-03-10 08:26:00,
2013-03-10 19:31:00,72.6,64.2,30.04,ESE,105,1.0,3.0,75,0.00,,,0.00,Wunderground v.1.15,2013-03-10 08:31:00,
2013-03-10 19:36:00,72.4,64.0,30.05,East,94,0.0,4.0,75,0.00,,,0.00,Wunderground v.1.15,2013-03-10 08:36:00,
2013-03-10 19:41:00,72.3,64.3,30.05,SSW,204,1.0,3.0,76,0.00,,,0.00,Wunderground v.1.15,2013-03-10 08:41:00,
2013-03-10 19:46:00,72.1,64.1,30.05,East,80,0.0,4.0,76,0.00,,,0.00,Wunderground v.1.15,2013-03-10 08:46:00,
2013-03-10 19:51:00,71.9,64.3,30.05,SE,133,1.0,2.0,77,0.00,,,0.00,Wunderground v.1.15,2013-03-10 08:51:00,
2013-03-10 19:56:00,71.8,64.2,30.05,ESE,113,0.0,2.0,77,0.00,,,0.00,Wunderground v.1.15,2013-03-10 08:56:00,
2013-03-10 20:02:00,71.6,64.0,30.05,NE,41,0.0,2.0,77,0.00,,,0.00,Wunderground v.1.15,2013-03-10 09:02:00,
2013-03-10 20:07:00,71.5,64.3,30.06,ESE,107,0.0,2.0,78,0.00,,,0.00,Wunderground v.1.15,2013-03-10 09:07:00,
2013-03-10 20:12:00,71.4,64.2,30.06,ENE,60,1.0,2.0,78,0.00,,,0.00,Wunderground v.1.15,2013-03-10 09:12:00,
2013-03-10 20:17:00,71.2,64.0,30.06,East,98,0.0,3.0,78,0.00,,,0.00,Wunderground v.1.15,2013-03-10 09:17:00,
2013-03-10 20:22:00,71.1,64.3,30.06,SSE,165,0.0,1.0,79,0.00,,,0.00,Wunderground v.1.15,2013-03-10 09:22:00,
2013-03-10 20:27:00,71.0,64.2,30.07,SE,143,0.0,2.0,79,0.00,,,0.00,Wunderground v.1.15,2013-03-10 09:27:00,
2013-03-10 20:32:00,70.8,64.0,30.07,SSE,153,0.0,1.0,79,0.00,,,0.00,Wunderground v.1.15,2013-03-10 09:32:00,
2013-03-10 20:37:00,70.7,64.2,30.07,ENE,69,0.0,1.0,80,0.00,,,0.00,Wunderground v.1.15,2013-03-10 09:37:00,
2013-03-10 20:42:00,70.6,64.1,30.07,South,179,0.0,2.0,80,0.00,,,0.00,Wunderground v.1.15,2013-03-10 09:42:00,
2013-03-10 20:47:00,70.5,64.0,30.07,South,176,0.0,2.0,80,0.00,,,0.00,Wunderground v.1.15,2013-03-10 09:47:00,
2013-03-10 20:52:00,70.3,64.2,30.08,WSW,239,0.0,1.0,81,0.00,,,0.00,Wunderground v.1.15,2013-03-10 09:52:00,
2013-03-10 20:57:00,70.1,64.0,30.08,WSW,248,0.0,1.0,81,0.00,,,0.00,Wunderground v.1.15,2013-03-10 09:57:00,
2013-03-10 21:02:00,69.9,64.2,30.08,ESE,119,0.0,1.0,82,0.00,,,0.00,Wunderground v.1.15,2013-03-10 10:02:00,
2013-03-10 21:07:00,69.8,64.1,30.08,SE,125,0.0,1.0,82,0.00,,,0.00,Wunderground v.1.15,2013-03-10 10:07:00,
2013-03-10 21:12:00,69.7,64.0,30.08,SSW,207,0.0,0.0,82,0.00,,,0.00,Wunderground v.1.15,2013-03-10 10:12:00,
2013-03-10 21:17:00,69.5,64.1,30.08,ESE,122,0.0,1.0,83,0.00,,,0.00,Wunderground v.1.15,2013-03-10 10:17:00,
2013-03-10 21:22:00,69.4,64.0,30.08,ENE,68,0.0,2.0,83,0.00,,,0.00,Wunderground v.1.15,2013-03-10 10:22:00,
2013-03-10 21:27:00,69.4,64.4,30.08,East,88,0.0,2.0,84,0.00,,,0.00,Wunderground v.1.15,2013-03-10 10:27:00,
2013-03-10 21:32:00,69.3,64.3,30.08,South,178,0.0,1.0,84,0.00,,,0.00,Wunderground v.1.15,2013-03-10 10:32:00,
2013-03-10 21:37:00,69.3,64.3,30.08,SSE,155,0.0,2.0,84,0.00,,,0.00,Wunderground v.1.15,2013-03-10 10:37:00,
2013-03-10 21:42:00,69.2,64.2,30.08,SE,136,0.0,1.0,84,0.00,,,0.00,Wunderground v.1.15,2013-03-10 10:42:00,
2013-03-10 21:47:00,69.2,64.2,30.08,SSE,158,0.0,1.0,84,0.00,,,0.00,Wunderground v.1.15,2013-03-10 10:47:00,
2013-03-10 21:52:00,69.1,64.1,30.08,South,186,0.0,1.0,84,0.00,,,0.00,Wunderground v.1.15,2013-03-10 10:52:00,
2013-03-10 21:57:00,69.0,64.3,30.08,South,186,1.0,1.0,85,0.00,,,0.00,Wunderground v.1.15,2013-03-10 10:57:00,
2013-03-10 22:02:00,68.9,64.2,30.08,ESE,121,0.0,0.0,85,0.00,,,0.00,Wunderground v.1.15,2013-03-10 11:02:00,
2013-03-10 22:07:00,68.7,64.0,30.08,ESE,110,0.0,1.0,85,0.00,,,0.00,Wunderground v.1.15,2013-03-10 11:07:00,
2013-03-10 22:12:00,68.6,63.9,30.08,SSE,166,0.0,1.0,85,0.00,,,0.00,Wunderground v.1.15,2013-03-10 11:12:00,
2013-03-10 22:17:00,68.4,64.0,30.08,SSE,158,0.0,1.0,86,0.00,,,0.00,Wunderground v.1.15,2013-03-10 11:17:00,
2013-03-10 22:22:00,68.3,63.9,30.08,SSE,158,0.0,0.0,86,0.00,,,0.00,Wunderground v.1.15,2013-03-10 11:22:00,
2013-03-10 22:27:00,68.2,63.9,30.08,SSE,155,0.0,1.0,86,0.00,,,0.00,Wunderground v.1.15,2013-03-10 11:27:00,
2013-03-10 22:32:00,68.1,64.1,30.09,South,189,0.0,1.0,87,0.00,,,0.00,Wunderground v.1.15,2013-03-10 11:32:00,
2013-03-10 22:37:00,68.1,64.1,30.09,ESE,112,0.0,1.0,87,0.00,,,0.00,Wunderground v.1.15,2013-03-10 11:37:00,
2013-03-10 22:43:00,68.1,64.1,30.09,ENE,75,0.0,1.0,87,0.00,,,0.00,Wunderground v.1.15,2013-03-10 11:43:00,
2013-03-10 22:48:00,68.0,64.0,30.09,ENE,62,0.0,1.0,87,0.00,,,0.00,Wunderground v.1.15,2013-03-10 11:48:00,
2013-03-10 22:53:00,68.0,64.0,30.09,SE,134,1.0,1.0,87,0.00,,,0.00,Wunderground v.1.15,2013-03-10 11:53:00,
2013-03-10 22:57:00,68.0,64.0,30.09,SSE,150,0.0,3.0,87,0.00,,,0.00,Wunderground v.1.15,2013-03-10 11:57:00,
2013-03-10 23:02:00,68.0,64.0,30.08,South,176,0.0,1.0,87,0.00,,,0.00,Wunderground v.1.15,2013-03-10 12:02:00,
2013-03-10 23:07:00,67.9,63.9,30.09,South,171,0.0,1.0,87,0.00,,,0.00,Wunderground v.1.15,2013-03-10 12:07:00,
2013-03-10 23:12:00,67.9,63.9,30.09,NE,45,0.0,0.0,87,0.00,,,0.00,Wunderground v.1.15,2013-03-10 12:12:00,
2013-03-10 23:17:00,67.8,63.8,30.09,NE,46,0.0,1.0,87,0.00,,,0.00,Wunderground v.1.15,2013-03-10 12:17:00,
2013-03-10 23:22:00,67.7,64.0,30.08,NE,46,0.0,1.0,88,0.00,,,0.00,Wunderground v.1.15,2013-03-10 12:22:00,
2013-03-10 23:27:00,67.6,63.9,30.09,NNE,27,0.0,1.0,88,0.00,,,0.00,Wunderground v.1.15,2013-03-10 12:27:00,
2013-03-10 23:32:00,67.6,63.9,30.09,ENE,76,0.0,0.0,88,0.00,,,0.00,Wunderground v.1.15,2013-03-10 12:32:00,
2013-03-10 23:37:00,67.5,63.8,30.09,SW,219,0.0,1.0,88,0.00,,,0.00,Wunderground v.1.15,2013-03-10 12:37:00,
2013-03-10 23:42:00,67.5,63.8,30.09,NNE,25,0.0,1.0,88,0.00,,,0.00,Wunderground v.1.15,2013-03-10 12:42:00,
2013-03-10 23:47:00,67.3,63.6,30.09,NNE,25,0.0,1.0,88,0.00,,,0.00,Wunderground v.1.15,2013-03-10 12:47:00,
2013-03-10 23:53:00,67.4,63.7,30.09,SSE,165,1.0,1.0,88,0.00,,,0.00,Wunderground v.1.15,2013-03-10 12:53:00,
2013-03-10 23:58:00,67.3,63.6,30.09,South,189,0.0,2.0,88,0.00,,,0.00,Wunderground v.1.15,2013-03-10 12:58:00,